Regional Weather Roundup
Issued by NWS Grand Forks, ND

Home | Current Version | Previous Version | Graphics & Text | Print | Product List | Glossary On
Versions: 1 2 3 4 5 6 7 8 9 10 11 12 13 14 15 16 17 18 19 20 21 22 23 24 25 26 27 28 29 30 31 32 33 34 35 36 37 38 39 40 41 42 43 44 45 46 47 48 49 50
000
ASUS43 KFGF 041910
RWRFGF
PRAIRIE TO PINES  WEATHER ROUNDUP
NATIONAL WEATHER SERVICE EASTERN NORTH DAKOTA/GRAND FORKS ND
200 PM CDT SAT JUL 04 2015

 **SATELLITE DATA USED TO AUGMENT SKY COVER AT AUTOMATED STATIONS**
 *****  WEATHER ACROSS EASTERN NORTH DAKOTA  *****

CITY           SKY/WX    TMP DP  RH WIND       PRES   REMARKS
GRAND FORKS    CLOUDY    84  67  56 S13G22    29.79F HAZE
GRAND FRKS AFB SUNNY     83  68  59 S15       29.79F
GRAND FRKS NWS   N/A     84 N/A N/A SW20        N/A
DEVILS LAKE    MOSUNNY   86  64  48 S16       29.77S
FARGO          MOSUNNY   83  66  56 S14G24    29.83S
WAHPETON ARPT  MOCLDY    81  64  57 S12       29.86S
$$

 ***** WEATHER ACROSS CENTRAL AND WESTERN NORTH DAKOTA  *****

CITY           SKY/WX    TMP DP  RH WIND       PRES   REMARKS
BISMARCK       SUNNY     85  68  56 SE12      29.77F
MINOT          SUNNY     86  64  47 S17       29.72F HAZE
JAMESTOWN      SUNNY     84  64  50 S13       29.80F
MINOT AFB      SUNNY     88  69  54 S15       29.71F HX  92
GARRISON         N/A     84  68  58 S12       29.75F
WILLISTON      SUNNY     92  62  36 S9        29.70F HX  92
DICKINSON      SUNNY     87  64  46 S9        29.77S
HETTINGER      SUNNY     87  63  44 S8        29.80F
$$

 *****  OTHER AIRPORT OBSERVATIONS IN OUR AREA  *****

CITY           SKY/WX    TMP DP  RH WIND       PRES   REMARKS
WALHALLA       FAIR      84  68  58 MISG      29.75S HAZE
GRAFTON AIRPOR FAIR      84  68  58 S14G21    29.78F HAZE
VALLEY CITY AR FAIR      82  68  61 S12       29.83S
CANDO          FAIR      84  66  54 S18       29.76F
CAVALIER APRT  FAIR      84  68  58 S16G22    29.75F HAZE
GWINNER        FAIR      84  64  51 S12       29.84S
SHEYENNE NWR     N/A     84  69  59 S9        29.95S
ROLLA            N/A     81  70  69 S15       29.77F
 ***** THE ABOVE OBSERVATIONS ARE NON NWS ARE NOT QUALITY
       CONTROLLED AND MAY MIS-REPORT RAIN FOR SNOW...
$$

  *****  WEATHER ACROSS NORTHERN MINNESOTA  *****

CITY           SKY/WX    TMP DP  RH WIND       PRES   REMARKS
FLAG ISLAND    SUNNY     73  64  73 S13       29.83F
WARROAD        SUNNY     81  66  61 S10G18    29.84F HAZE
ROSEAU         SUNNY     81  66  61 S14       29.83F HAZE
HALLOCK        SUNNY     82  70  65 S17       29.78F HAZE
THF RVR FALLS  MOSUNNY   81  64  57 S12G17    29.84F
BAUDETTE       SUNNY     79  60  52 S10G17    29.86F HAZE
WASKISH        SUNNY     81  61  50 S7        29.89S
CROOKSTON      SUNNY     82  66  57 SW13G21   29.83F HAZE
$$
  *****  WEATHER ACROSS CENTRAL AND WEST MINNESOTA  *****

CITY           SKY/WX    TMP DP  RH WIND       PRES   REMARKS
FOSSTON        SUNNY     79  64  61 S8        29.88F HAZE
BEMIDJI        SUNNY     79  62  54 S8        29.90S
PARK RAPIDS    CLOUDY    81  60  48 S12       29.91S HAZE
ELBOW LAKE     MOCLDY    80  68  65 S12       29.89S
WADENA         SUNNY     81  63  54 S10G16    29.90F HAZE
DETROIT LAKES  SUNNY     81  64  57 S7        29.90S HAZE
MOORHEAD       SUNNY     81  66  61 S12       29.85S
FERGUS FALLS   SUNNY     81  66  61 S12       29.87S
MORRIS MN      MOSUNNY   82  64  54 S12       29.89S
STAPLES        MOSUNNY   81  61  50 S7        29.91F HAZE
$$
  *****  WEATHER ELSEWHERE ACROSS MINNESOTA  *****

CITY           SKY/WX    TMP DP  RH WIND       PRES   REMARKS
DULUTH         SUNNY     75  60  59 SE9       29.96S
INTRNTL FALLS  MOSUNNY   79  57  46 VRB6      29.90F
ELY            MOSUNNY   79  48  34 SW3       29.95S
CLOQUET        SUNNY     77  57  50 E6        29.95F
WHEATON        SUNNY     79  64  61 S13       29.88S
BRAINERD       CLOUDY    82  61  48 S8        29.93S HAZE
HIBBING        SUNNY     80  54  40 VRB3      29.93F
ALEXANDRIA     MOSUNNY   80  67  64 S12       29.93S
SAINT CLOUD    MOSUNNY   83  62  49 S8        29.92S HAZE
MINNEAPOLIS    PTSUNNY   83  64  52 S6        29.93S HAZE
$$

  *****  WEATHER ACROSS SOUTH DAKOTA  *****

CITY           SKY/WX    TMP DP  RH WIND       PRES   REMARKS
SIOUX FALLS    PTSUNNY   80  66  62 S10       29.93F
BROOKINGS      MOSUNNY   79  64  61 S15       29.93F
WATERTOWN      MOSUNNY   82  65  56 S14G22    29.89F
HURON          SUNNY     83  68  60 S15G22    29.84F
SISSETON         N/A     84  64  50 S12       29.85F
ABERDEEN       SUNNY     85  69  58 S13       29.82F
MITCHELL       MOSUNNY   84  66  54 S15       29.88F
PIERRE         MOSUNNY   87  68  52 S20G25    29.78F HX  90
MOBRIDGE       SUNNY     87  69  54 S17       29.77F HX  91
RAPID CITY     SUNNY     88  64  44 NE5       29.84S
$$

  *****  SOME WEATHER IN NEARBY STATES *****

CITY           SKY/WX    TMP DP  RH WIND       PRES   REMARKS
GLASGOW MT     SUNNY     93  52  24 NW13G18   29.69S HX  90
GREAT FALLS MT SUNNY     81  52  36 MISG      29.91S
CHEYENNE WY    SUNNY     88  47  24 NW15      30.05S
SCOTTSBLUFF NE SUNNY     90  64  42 SE12G18   29.90F HX  91
OMAHA NE       PTSUNNY   80  58  46 SE12      29.98F
DES MOINES IA  MOSUNNY   81  57  43 S8        29.99F
DAVENPORT IA   SUNNY     78  60  53 W6        30.02S
CHICAGO IL     MOSUNNY   80  56  43 CALM      30.00S
EAU CLAIRE WI  SUNNY     82  63  52 W5        29.94F
LA CROSSE WI   SUNNY     82  64  54 S9        29.96S
$$

  *****  SOME NATIONAL WEATHER *****

CITY           SKY/WX    TMP DP  RH WIND       PRES   REMARKS
LA GUARDIA NY  LGT RAIN  71  61  70 NE7       29.95F
RALEIGH NC     LGT RAIN  76  72  87 SW9       29.99F
ATLANTA GA     PTSUNNY   82  69  64 W5        30.06F
NEW ORLEANS LA CLOUDY    89  71  55 W14       30.04S HX  95
OKLAHOMA CITY  MOSUNNY   86  72  62 SE8       29.97F HX  92
ALBUQUERQUE NM MOSUNNY   85  54  34 S6        30.12F
SALT LAKE CITY PTSUNNY   93  49  22 S13       29.93S HX  90
LOS ANGELES CA MOSUNNY   70  61  73 W9        29.92R
BOISE ID       MOSUNNY   94  46  19 NW8       29.85F HX  90
SEATTLE WA     SUNNY     80  54  40 W7        29.88F
$$

*** WEATHER ACROSS MANITOBA...SASKATCHEWAN AND ONTARIO ***
                ***ONTARIO***

CITY           SKY/WX    TMP DP  RH WIND       PRES   REMARKS
GERALDTON      CLOUDY    72  52  49 SW5       29.97S
THUNDER BAY    CLOUDY    73  61  64 VRB2      29.97S
SIOUX LOOKOUT  CLOUDY    75  57  53 SW9       29.90F
TORONTO        MOSUNNY   73  52  46 SE9       29.95S
BIG TROUT LK   MOSUNNY   70  55  60 S12       29.77F
PICKLE LAKE    CLOUDY    77  55  47 S10G18    29.87F
DRYDEN         SUNNY     77  55  47 S13G20    29.89F
KENORA         MOSUNNY   77  61  57 SW15G21   29.85F
$$
                *** MANITOBA***

CITY           SKY/WX    TMP DP  RH WIND       PRES   REMARKS
BRANDON        PTSUNNY   82  70  65 SW7       29.71F SMOKE
DAUPHIN        MOSUNNY   75  68  78 W5        29.69S HAZE
ISLAND LAKE    CLOUDY    68  64  88 VRB2      29.67S
PILOT MOUND      N/A     81  70  69 S17G23      N/A
THE PAS          N/A     68  55  64 W7        29.70R SMOKE
THOMPSON       CLOUDY    68  61  77 W9G17     29.60R SMOKE
WINNIPEG       SUNNY     81  70  69 S16G24    29.73F SMOKE
LYNN LAKE      MOSUNNY   70  55  60 NW17G23   29.62R
CHURCHILL      LGT RAIN  43  43 100 E24G35    29.71F FOG
GILLAM         CLOUDY    66  61  82 S6        29.58S SMOKE
$$
                ***SASKATCHEWAN***

CITY           SKY/WX    TMP DP  RH WIND       PRES   REMARKS
ESTEVAN        NOT AVBL
KINDERSLEY     MOSUNNY   73  52  46 N14       29.86S
LLOYDMINSTER   SMOKE     68  46  45 N8        29.89R VSB 3/4
PRINCE ALBERT  SMOKE     68  54  60 N12       29.80S VSB 3/8
REGINA         TSTM      68  64  88 E7        29.78F
YORKTON        RAIN      64  61  88 SW14      29.78R
N. BATTLEFORD  HAZE      72  45  37 N14       29.85R VSB 1
LA RONGE       SMOKE     66  50  55 SW7       29.76S VSB 1/2
SASKATOON      CLOUDY    77  50  38 NW13G21   29.80S SMOKE
SWIFT CURRENT  MOSUNNY   73  52  46 N14G22    29.85R HAZE
$$
NOTE: THESE ARE AUTOMATED STATIONS WITH LIMITED QUALITY CONTROL
      "FAIR" INDICATES FEW OR NO CLOUDS BELOW 12,000 FEET WITH NO
      SIGNIFICANT WEATHER AND/OR OBSTRUCTIONS TO VISIBILITY.
      SKY/WX - SKY CONDITION AND SIGNIFICANT WEATHER.
      TMP - AIR TEMPERATURE.    DP   - DEWPOINT TEMPERATURE.
      RH  - RELATIVE HUMIDITY.  PRES - PRESSURE.
      HX  - HEAT INDEX.         WCI  - WIND CHILL INDEX.
$



USA.gov is the U.S. government's official web portal to all federal, state and local government web resources and services.